Theta_e
320 321 323 321 318 315 318 316 315 315 316 314 310 313 315 316 318 317 321 326 329 327 328 335 335 337 337 337 337 334 334 336 336 337 336 335 335 335 335 335 336 336 335 335 334 332 332 332 333
320 321 321 313 320 316 312 315 317 313 313 313 313 314 316 317 316 318 324 327 328 328 329 332 333 336 336 336 336 335 336 336 337 335 335 334 333 332 332 332 333 334 333 331 329 326 325 327 327
319 319 318 316 314 315 316 314 313 313 312 313 314 312 314 315 314 317 324 327 328 330 330 331 332 334 336 336 335 335 336 335 334 333 333 332 332 330 329 328 329 330 329 326 324 323 322 320 319
319 314 309 319 320 318 315 315 311 314 313 310 312 313 310 312 315 317 322 327 328 330 330 330 330 331 335 336 335 335 337 335 332 331 332 330 329 327 324 322 324 324 322 320 316 310 306 305 304
315 309 312 315 315 314 311 312 310 313 313 312 312 313 311 311 314 316 322 326 326 329 329 328 327 329 335 335 334 334 334 333 332 330 329 328 325 321 320 318 318 317 314 308 306 306 307 304 301
312 309 315 314 313 313 312 311 311 312 311 311 312 311 310 310 312 316 320 325 325 325 325 325 325 326 331 333 333 332 331 331 330 329 326 323 320 318 316 315 314 313 312 312 311 308 304 302 300
315 313 315 313 313 314 315 307 312 312 312 311 309 313 310 308 312 316 319 324 325 324 323 322 323 324 329 329 330 330 329 329 327 325 322 319 317 316 314 314 314 313 313 311 302 299 298 298 298
311 312 315 313 313 315 313 310 311 310 312 307 308 312 311 309 311 315 319 323 324 324 322 321 322 324 325 325 327 326 327 325 322 320 318 316 313 313 311 310 313 312 311 303 298 298 298 298 298
308 310 310 312 312 314 312 313 311 309 310 309 308 308 308 309 311 315 319 321 322 322 322 321 320 322 322 323 324 324 325 320 318 316 315 312 307 305 303 307 310 309 306 299 298 298 298 298 298
313 308 310 308 309 313 313 312 313 313 311 308 308 306 307 307 311 314 315 317 319 320 321 321 320 320 320 320 320 319 321 319 316 314 311 307 300 299 300 305 306 302 299 299 298 298 298 297 297
312 314 310 312 310 312 313 312 310 310 311 308 309 309 304 305 306 311 313 315 317 319 319 320 319 319 319 318 317 316 316 317 313 311 308 303 299 297 299 301 301 299 298 297 297 297 297 296 296
316 312 312 313 313 314 314 310 311 309 315 311 307 307 305 303 303 306 310 313 315 315 317 318 319 318 318 317 315 314 313 313 311 308 306 302 299 297 298 300 298 296 296 297 297 296 296 295 295
314 314 313 312 312 312 311 312 312 309 309 308 306 305 304 303 303 305 308 309 310 312 314 316 317 318 317 316 314 313 311 310 308 307 304 300 298 297 297 297 296 296 296 296 296 296 296 296 295
312 312 311 310 311 311 313 313 313 310 309 308 307 306 303 302 304 304 305 305 306 308 310 312 314 316 317 316 314 311 310 309 307 305 302 300 298 297 297 296 296 296 296 296 296 296 296 295 294
312 312 308 308 309 310 309 312 309 311 309 308 306 304 303 302 304 304 307 306 308 307 307 308 310 313 315 316 314 312 308 307 306 304 300 299 298 297 297 296 296 296 295 295 294 295 294 294 294
310 309 310 309 308 309 310 309 309 307 306 306 306 306 305 305 304 307 309 309 308 307 307 306 306 308 311 314 314 312 309 306 305 303 298 298 299 298 297 296 296 295 294 294 294 294 294 294 295
307 309 308 308 307 309 308 309 308 307 307 307 306 306 306 308 307 308 310 310 309 309 307 306 305 305 307 310 311 311 309 305 303 302 298 298 298 298 297 296 295 294 294 293 293 293 294 294 294
309 308 307 307 309 307 309 309 309 308 307 307 307 308 309 309 309 310 311 310 310 309 307 306 305 304 304 305 305 306 306 303 301 300 298 298 298 297 297 296 295 294 293 293 293 293 293 293 293
307 306 306 306 307 308 309 309 309 308 307 309 309 309 308 309 308 309 309 309 309 307 305 304 303 301 301 301 301 300 301 302 301 299 298 298 298 297 297 295 294 294 293 293 293 292 292 292 292
308 308 309 309 308 307 308 309 309 309 309 309 309 310 309 308 307 307 306 307 307 308 306 303 303 301 300 299 299 299 299 299 301 299 298 298 297 297 296 295 294 294 292 292 292 292 291 291 291
307 308 310 309 308 306 305 309 307 307 306 307 307 308 305 305 307 307 304 304 306 305 305 304 303 301 299 299 298 298 298 297 297 297 298 298 297 297 296 295 294 293 292 292 292 291 292 292 289
310 307 308 309 308 310 307 312 308 308 307 307 307 304 304 304 303 302 302 301 304 307 306 304 301 299 299 299 298 297 297 296 297 296 297 298 297 296 295 294 293 293 292 291 291 291 291 292 291
310 308 307 307 308 307 309 308 311 307 308 307 306 306 304 303 302 302 301 302 305 305 304 303 302 300 298 298 298 297 297 297 297 296 296 296 296 296 294 294 293 292 292 291 291 290 290 291 291
307 308 306 305 306 310 309 308 313 308 309 309 307 309 304 303 302 300 301 302 302 301 300 301 300 298 297 297 297 297 296 296 296 295 295 294 294 295 294 293 292 292 291 291 290 290 290 290 290
307 307 309 309 309 312 307 307 311 310 309 307 306 305 304 302 300 300 300 298 299 298 297 296 296 296 297 296 296 296 296 297 297 296 294 293 293 293 294 293 291 291 291 290 290 289 289 290 289
306 308 310 314 310 314 303 310 315 310 307 305 303 303 303 302 301 300 300 297 297 297 296 296 296 296 296 296 296 296 296 295 295 296 295 294 294 295 294 292 291 291 290 290 289 289 289 289 288
306 308 308 311 311 311 312 309 309 310 307 306 306 304 303 303 301 301 300 298 298 297 296 297 296 297 297 296 296 296 296 296 295 295 295 295 295 294 293 293 292 291 290 289 289 288 288 288 287
306 306 310 308 314 315 311 311 313 311 312 308 305 304 304 302 301 300 300 299 298 298 297 295 296 296 297 297 296 296 296 296 295 295 295 295 295 294 293 292 292 291 289 289 288 287 288 287 287
310 307 306 307 311 317 318 315 310 312 311 307 305 307 305 301 300 299 298 298 298 299 298 298 297 296 296 295 294 294 294 294 294 294 294 294 293 293 292 292 291 290 289 288 287 287 287 286 286
307 312 311 314 314 311 313 314 310 309 310 306 302 300 300 298 296 297 296 297 297 297 298 298 297 297 297 297 295 295 295 294 294 293 293 293 293 293 292 291 290 289 288 287 287 286 286 286 285
Wind_Speed
2 3 2 3 4 5 4 6 2 3 2 2 7 5 7 4 6 5 4 21 11 28 26 23 19 18 20 20 18 16 14 15 13 12 10 9 10 10 9 7 8 8 7 6 5 5 4 5 3
1 2 3 2 4 2 5 4 6 6 2 2 2 2 1 7 2 4 3 22 14 30 28 25 22 20 18 18 18 17 18 16 15 14 14 14 11 10 10 10 9 9 7 6 6 3 2 2 1
1 3 3 4 3 4 5 5 5 2 1 2 2 1 2 4 3 4 9 22 19 31 28 25 24 21 19 17 18 18 18 16 16 15 13 11 11 11 10 10 11 9 8 6 4 1 1 2 3
1 5 4 3 6 7 7 5 3 1 2 4 1 5 4 6 4 5 12 24 23 29 27 26 25 23 21 20 19 21 19 18 16 14 13 14 12 11 11 9 9 9 8 5 2 2 1 0 0
5 3 2 2 5 6 6 6 4 3 2 2 3 4 5 3 10 6 13 25 24 27 26 26 25 24 19 19 21 20 18 16 15 14 14 14 13 11 10 9 9 8 7 5 4 5 5 4 3
4 3 3 3 5 6 6 5 3 3 2 1 2 2 6 4 7 9 14 24 24 25 26 25 25 24 22 21 21 21 21 18 17 17 16 14 13 11 10 10 9 8 8 8 9 7 7 6 5
5 3 3 3 5 7 4 4 3 3 1 6 2 2 5 4 9 12 17 22 22 23 24 26 26 25 23 22 23 23 21 20 19 18 17 15 14 13 11 11 11 11 10 10 7 6 5 4 5
5 4 1 4 2 6 3 2 2 5 5 2 4 5 6 1 9 15 18 22 24 25 25 26 27 27 26 24 25 22 23 22 21 20 18 17 16 14 14 14 13 12 12 9 7 5 4 3 4
3 3 3 5 5 5 2 1 2 2 3 3 7 6 4 3 12 17 20 21 24 27 29 29 30 29 27 27 27 26 25 25 23 22 22 21 18 17 16 16 15 14 12 9 6 4 3 3 3
4 4 7 6 5 5 3 4 5 1 5 5 6 8 8 8 17 20 22 26 30 33 34 33 33 32 30 30 29 28 28 27 25 25 24 21 19 18 17 18 15 13 11 8 7 5 4 4 4
5 6 5 6 8 5 4 4 4 4 8 10 9 8 7 9 17 20 24 29 40 39 37 38 36 34 33 33 32 32 31 30 28 27 25 23 20 20 20 20 18 15 12 9 8 7 6 4 4
3 8 6 4 4 2 5 5 5 8 19 8 14 8 5 9 10 22 25 35 38 36 39 40 39 38 36 34 35 34 34 33 32 30 27 26 24 23 22 20 17 15 12 10 9 7 5 4 4
5 5 6 7 5 8 5 14 7 9 20 8 8 9 11 10 15 25 32 34 33 38 39 41 41 42 41 38 37 37 37 36 34 32 30 28 27 25 23 21 18 16 14 12 9 7 4 3 4
2 4 7 6 7 7 8 18 5 13 6 12 6 13 12 11 17 18 27 37 38 40 43 42 44 46 45 44 43 42 40 38 36 34 32 31 29 27 25 23 21 19 16 13 10 7 5 3 2
3 7 8 6 6 7 7 10 10 20 2 13 13 11 11 13 15 24 35 35 42 44 43 44 45 46 49 49 48 46 44 40 38 36 34 33 31 29 27 25 24 21 18 15 13 9 6 4 2
3 1 5 2 4 4 8 10 21 8 7 13 14 11 10 14 13 29 34 38 36 36 42 43 44 47 49 52 52 50 47 44 42 39 37 35 33 31 29 28 25 22 19 16 14 11 8 4 1
3 6 7 10 10 6 8 10 13 6 6 10 12 13 12 19 17 29 37 40 37 38 38 41 44 47 49 50 51 50 49 46 45 42 40 37 35 34 32 30 26 24 21 19 15 13 9 6 2
9 6 6 7 7 7 6 17 14 14 10 17 16 19 20 21 26 30 25 29 30 34 36 39 41 45 45 44 44 45 45 46 44 42 40 38 37 36 34 31 28 26 24 21 18 14 10 6 1
2 6 11 8 9 4 20 22 18 16 11 25 22 18 20 21 22 30 27 25 25 29 31 36 38 41 42 42 42 39 46 47 44 45 42 41 40 38 36 34 31 29 27 24 20 17 12 6 3
5 11 18 14 14 5 13 21 17 20 21 20 24 24 18 17 18 20 16 15 20 28 31 33 39 40 44 43 40 28 35 42 48 47 45 44 42 39 38 36 36 33 30 27 25 22 15 8 6
4 7 17 14 7 5 10 14 8 9 8 14 18 22 10 14 20 20 7 11 18 25 29 34 39 42 41 39 35 29 27 23 39 42 45 45 43 42 41 39 37 36 34 32 29 25 19 13 8
15 11 13 11 6 7 5 15 7 8 10 8 16 8 12 12 9 10 10 8 18 27 27 30 32 35 39 42 42 41 33 25 37 41 48 49 47 45 43 41 39 38 36 33 30 26 22 17 14
11 4 7 3 4 5 1 3 2 4 6 11 9 9 7 8 8 11 11 16 24 18 20 27 29 32 35 42 44 44 35 32 29 35 42 45 47 45 43 42 40 39 37 35 31 29 25 22 20
2 2 4 4 2 6 9 8 20 3 4 3 8 15 9 9 11 12 11 14 21 15 12 19 26 31 33 37 39 39 33 31 29 35 38 42 43 45 44 43 42 42 40 38 34 30 27 25 20
3 4 3 3 1 9 3 3 15 9 15 8 10 10 7 9 10 11 11 12 19 12 5 12 19 24 29 34 37 38 38 40 40 41 39 41 42 47 49 48 47 45 42 39 36 33 30 28 25
8 9 6 7 5 12 4 7 18 5 7 11 7 7 5 9 8 10 10 6 15 11 4 10 16 20 25 32 36 37 37 35 36 39 40 42 45 50 49 49 47 44 42 40 37 34 32 29 26
4 5 3 2 2 2 12 14 14 14 6 4 2 5 7 9 9 10 11 11 14 12 8 11 15 20 24 29 32 35 38 39 38 38 38 39 40 44 46 48 49 47 45 43 41 38 36 32 28
7 3 2 1 3 6 7 13 12 22 24 7 8 8 9 9 10 10 14 17 26 19 16 13 13 17 19 25 31 35 38 40 42 40 41 42 41 41 42 44 48 49 47 45 43 42 39 36 33
2 4 3 2 5 10 16 12 10 21 22 8 10 11 14 18 18 18 17 25 27 29 29 24 19 20 22 23 25 29 32 35 37 42 43 43 41 41 42 42 46 51 50 49 46 44 42 39 36
5 11 9 11 9 10 13 12 14 16 22 20 19 16 16 17 18 16 14 20 24 26 29 31 33 32 33 33 29 31 33 34 35 41 44 44 43 42 42 43 43 47 52 53 52 49 47 45 42
Wind_Direction
300 324 314 40 46 59 271 265 271 262 252 172 123 148 195 178 170 211 296 182 171 178 174 175 180 186 191 191 195 193 186 184 176 178 174 162 160 167 158 146 144 141 159 153 156 117 108 122 92
335 326 59 77 93 50 267 250 239 233 266 113 139 147 223 250 242 272 188 182 179 180 178 182 185 182 189 197 197 189 186 184 176 183 175 171 169 168 154 155 162 153 144 130 123 130 117 126 204
2 25 83 96 117 192 225 222 244 268 199 177 276 220 229 232 236 231 196 182 176 183 186 189 191 189 186 186 189 186 190 183 194 190 181 175 166 164 167 162 159 145 148 139 147 171 238 247 261
22 21 36 103 225 249 219 250 227 283 241 229 199 278 281 234 191 209 192 183 178 185 191 192 195 194 194 189 187 187 182 181 185 184 185 181 179 172 164 164 170 176 170 168 187 209 229 153 265
42 54 54 310 260 265 254 260 189 214 267 194 163 265 257 249 222 224 192 185 186 186 192 196 198 197 193 194 198 197 196 188 187 186 182 178 169 165 160 156 150 154 159 150 128 111 103 100 74
38 93 37 261 265 273 279 258 168 206 223 226 196 293 245 251 224 210 192 189 191 192 194 199 201 200 201 197 199 201 201 195 193 185 179 174 169 167 162 154 147 140 128 116 109 108 98 83 66
113 88 230 253 265 304 261 141 199 210 232 257 153 244 266 282 218 197 190 191 194 198 200 201 202 201 203 199 200 204 196 190 183 180 178 175 170 165 159 151 142 134 128 125 120 111 96 71 51
111 96 271 249 262 273 316 221 236 177 258 63 177 241 265 322 195 189 189 194 198 202 206 206 203 205 204 198 203 195 200 191 186 186 185 185 174 169 166 153 149 144 142 140 130 116 99 63 46
127 65 242 251 184 249 197 253 223 138 265 218 208 217 235 245 180 180 187 198 204 208 209 209 208 207 206 202 201 194 198 195 193 192 193 191 187 182 174 161 163 155 156 157 145 131 101 60 43
114 145 228 213 207 244 278 201 267 269 258 256 272 255 233 201 185 184 191 204 209 213 212 212 211 211 208 206 204 200 200 202 199 199 201 196 190 185 177 172 171 171 176 172 162 149 125 107 85
178 210 215 243 225 260 269 279 218 167 276 226 222 243 196 195 204 207 212 209 214 217 216 214 214 213 212 209 207 205 204 206 205 205 204 199 192 188 186 186 187 183 180 168 157 147 137 117 86
233 245 225 247 202 280 261 301 258 181 257 218 224 234 173 203 209 214 218 221 223 223 224 221 217 215 215 214 212 210 207 207 208 208 206 202 197 194 193 192 190 186 184 181 172 159 139 108 71
219 242 248 245 263 259 296 264 236 243 256 260 254 245 237 228 225 229 231 235 230 231 229 226 221 219 217 216 216 214 213 212 211 210 209 206 204 201 198 197 196 194 192 187 182 167 137 94 60
232 257 270 286 247 237 208 270 144 257 274 278 219 253 244 232 235 233 237 239 235 236 234 230 226 222 219 218 218 218 217 216 215 214 212 209 210 206 205 202 201 200 197 193 187 176 158 143 98
300 311 312 216 248 233 168 295 231 250 259 268 276 265 268 239 235 230 241 236 239 239 238 233 228 224 222 221 221 219 219 218 218 217 214 211 209 208 209 208 205 203 199 192 187 177 170 160 121
304 184 305 9 128 265 156 256 272 249 242 269 275 279 278 276 246 249 256 255 250 243 238 234 229 225 223 223 222 221 221 220 220 218 213 212 212 212 211 211 208 204 199 194 189 182 180 179 182
336 250 224 300 213 190 186 253 256 282 200 259 273 273 271 276 272 261 265 264 260 255 242 235 227 225 223 221 222 222 223 221 221 218 215 214 214 214 214 212 207 204 201 197 193 191 194 188 190
234 235 254 244 278 181 225 251 275 284 285 263 263 274 273 269 265 276 272 268 264 258 247 237 230 224 221 217 216 220 221 222 221 220 216 216 216 214 214 212 209 206 203 199 194 194 190 191 195
171 239 252 262 264 300 278 276 270 271 271 278 278 267 267 267 278 276 271 268 257 249 241 233 224 218 210 203 200 208 213 217 218 219 219 218 217 215 214 211 208 207 206 202 198 192 188 174 167
251 269 272 277 264 250 273 273 278 265 256 252 268 278 275 286 287 283 278 250 240 245 235 228 225 218 210 203 200 201 203 215 216 216 217 217 217 216 215 211 209 208 204 202 200 195 186 178 161
211 235 265 267 304 253 299 281 233 272 249 257 260 262 280 262 273 288 320 261 260 245 235 229 225 218 209 204 195 197 198 208 211 215 216 215 216 217 215 213 212 210 209 206 203 201 198 172 164
264 225 256 272 348 282 4 298 176 230 262 273 266 274 263 280 296 278 288 265 249 264 248 231 223 217 209 204 198 193 196 193 208 207 212 214 214 214 214 213 213 212 211 210 208 204 202 191 174
241 178 240 194 205 317 244 272 106 105 223 267 290 273 283 304 299 297 292 284 291 269 251 234 217 216 212 207 204 197 198 202 210 203 211 214 213 214 212 212 212 212 213 212 209 204 202 201 191
103 100 58 48 96 280 188 180 295 159 240 249 316 313 336 329 322 312 315 320 306 304 251 217 211 206 208 210 208 205 203 199 195 202 205 210 213 212 213 213 214 214 213 211 209 209 206 206 205
144 87 312 326 44 233 81 162 251 288 280 269 280 278 302 327 316 325 334 343 342 319 268 213 204 198 203 209 213 213 213 212 211 208 201 202 207 212 214 213 212 213 213 212 210 208 207 206 208
184 171 176 218 253 282 99 244 269 239 281 261 268 264 321 327 339 344 339 351 340 327 231 197 205 209 208 210 216 216 218 219 217 218 211 211 211 213 215 215 217 216 214 212 211 211 210 209 210
180 178 241 320 271 258 267 273 299 294 303 345 322 346 338 332 330 333 336 355 2 325 271 218 214 215 217 219 222 222 218 221 225 223 223 224 222 220 218 216 216 217 214 212 210 210 209 210 209
178 193 216 342 243 243 232 260 267 290 291 300 303 331 330 279 312 348 9 14 17 359 343 316 284 258 244 234 229 229 230 226 226 228 227 224 225 223 221 218 217 217 217 214 210 210 209 207 207
189 232 216 201 202 254 267 258 262 274 296 343 352 336 6 21 17 15 15 21 18 13 12 353 333 313 295 276 263 250 245 236 232 234 231 230 227 223 221 220 217 216 215 214 211 211 209 208 207
189 250 243 241 249 244 264 263 296 315 313 26 41 26 5 11 6 3 9 9 14 16 14 8 2 5 347 317 288 270 258 251 244 243 239 232 229 227 225 220 218 218 216 215 213 211 210 208 207